Location: Napier
(39.4830°S, 176.9170°E)
Time: 14:02:09
(UTC+12:00)

Milstar 3 Cent rocket - Pass Details

Date: 15 August 2020
Orbit: 707 x 5146 km, 28.3° (Epoch: 23 September)

Event Time Altitude Azimuth Distance (km) Brightness Sun altitude
Rises 18:46:06 0° 284° (WNW) 4,429 7.8 -14.4°
Reaches altitude 10° 18:50:04 10° 295° (WNW) 2,937 6.2 -15.1°
Maximum altitude 18:55:17 26° 350° (N) 1,561 3.7 -16.1°
Enters shadow 18:58:40 13° 43° (NE) 2,017 3.8 -16.8°
